[[{"header":{"parameterUnit":"m.s-1","parameterCategory":1,"la1":30.2992,"la2":30.254,"lo1":-89.0895,"lo2":-89.0443,"dy":0.0025,"dx":0.0025,"nx":19,"ny":19,"refTime":"2026-04-25T21:00:00:Z","depth":0,"parameterNumber":2,"parameterNumberName":"U-component_of_WINDS"},"data":[0,0,0,-0.1266,-0.1262,-0.1057,-0.1056,-0.0821,-0.0819,0,0,0,0,0,0,0,0,0,0,0,-0.1344,-0.1343,-0.1266,-0.1262,-0.1057,-0.1056,-0.0821,-0.0819,0,0,0,0,0,0,0,0,0,0,0,-0.1344,-0.1343,-0.1342,-0.1261,-0.1057,-0.1056,-0.0822,-0.0966,0,0,0,0,0,0,0,0,0,0,-0.1161,-0.1249,-0.1343,-0.1342,-0.126,-0.1057,-0.1056,-0.0973,-0.0957,-0.0925,0,-0.0902,0,-0.0857,-0.0805,-0.0804,0,0,0,-0.1248,-0.1262,-0.1192,-0.1341,-0.1258,-0.1058,-0.1146,-0.0964,-0.0946,-0.0905,-0.0898,-0.0889,-0.0853,-0.0804,-0.0803,-0.0664,-0.0664,0,0,-0.126,-0.1316,-0.1204,-0.1181,-0.1215,-0.1152,-0.1139,-0.0953,-0.0949,-0.0898,-0.0883,-0.0849,-0.0802,-0.0801,-0.0664,-0.0664,0,0,0,-0.1301,-0.1324,-0.1257,-0.1192,-0.1153,-0.1147,-0.1132,-0.0957,-0.0931,-0.088,-0.0847,-0.0801,-0.0798,-0.0664,-0.0664,-0.0717,0,0,0,-0.1307,-0.1348,-0.1263,-0.1295,-0.1157,-0.1053,-0.1141,-0.0944,-0.0921,-0.0848,-0.0801,-0.0796,-0.0664,-0.0664,-0.0716,-0.0733,0,0,0,-0.1351,-0.1353,-0.1329,-0.1299,-0.1213,-0.1054,-0.1017,-0.0938,-0.0901,-0.0804,-0.0796,-0.0664,-0.0664,-0.0714,-0.0731,-0.0713,0,0,0,-0.1414,-0.1378,-0.1331,-0.1279,-0.1215,-0.1089,-0.1017,-0.0921,-0.0844,-0.08,-0.0664,-0.0664,-0.0714,-0.0729,-0.0712,-0.0709,-0.0713,0,0,-0.14,-0.1379,-0.1343,-0.1295,-0.1193,-0.1116,-0.102,-0.0896,-0.0835,-0.0725,-0.072,-0.0716,-0.073,-0.0713,-0.0716,-0.0719,0,0,0,-0.1358,-0.1334,-0.1294,-0.1224,-0.113,-0.105,-0.0935,-0.0889,-0.0793,-0.079,-0.0703,-0.071,-0.0698,-0.0694,-0.0697,-0.0683,-0.0665,-0.0665,-0.0665,-0.1419,-0.1344,-0.1281,-0.1182,-0.1115,-0.0997,-0.0936,-0.0854,-0.0797,-0.0778,-0.0745,-0.0755,-0.0753,-0.0755,-0.0741,-0.0737,-0.0737,-0.0737,-0.0737,-0.1393,-0.1347,-0.1273,-0.1186,-0.1107,-0.1032,-0.0917,-0.088,-0.0799,-0.0774,-0.0759,-0.0739,-0.0761,-0.0745,-0.074,-0.074,-0.0739,-0.0739,-0.0739,-0.1425,-0.139,-0.1336,-0.1227,-0.1152,-0.1052,-0.0978,-0.0908,-0.0842,-0.0827,-0.0785,-0.0783,-0.0774,-0.0812,-0.0812,-0.0812,-0.0812,-0.0812,-0.0812,-0.148,-0.1417,-0.1363,-0.1261,-0.1207,-0.1128,-0.101,-0.0954,-0.0875,-0.083,-0.083,-0.0775,-0.0777,-0.0779,-0.0812,-0.0812,-0.0812,-0.0812,-0.0812,-0.1483,-0.1471,-0.1389,-0.1335,-0.1209,-0.1139,-0.1051,-0.0945,-0.0889,-0.0855,-0.0804,-0.0816,-0.0789,-0.0786,-0.0787,-0.082,-0.082,-0.082,-0.082,-0.151,-0.149,-0.139,-0.1309,-0.1221,-0.1134,-0.1043,-0.0951,-0.0854,-0.0815,-0.08,-0.0796,-0.0796,-0.0768,-0.0765,-0.0766,-0.0792,-0.0792,-0.0792,-0.1508,-0.1476,-0.1412,-0.1318,-0.1214,-0.1127,-0.1039,-0.0949,-0.0836,-0.0789,-0.0783,-0.0784,-0.0776,-0.0777,-0.0731,-0.0729,-0.0727,0,0]},{"header":{"parameterUnit":"m.s-1","parameterCategory":1,"la1":30.2992,"la2":30.254,"lo1":-89.0895,"lo2":-89.0443,"dy":0.0025,"dx":0.0025,"nx":19,"ny":19,"refTime":"2026-04-25T21:00:00:Z","depth":0,"parameterNumber":3,"parameterNumberName":"V-component_of_WINDS"},"data":[0,0,0,3.3192,3.3191,3.3121,3.3121,3.3041,3.3041,0,0,0,0,0,0,0,0,0,0,0,3.3222,3.3222,3.3192,3.3191,3.3121,3.3121,3.3041,3.3041,0,0,0,0,0,0,0,0,0,0,0,3.3223,3.3222,3.3222,3.3191,3.3121,3.3121,3.3042,3.309,0,0,0,0,0,0,0,0,0,0,3.3156,3.3194,3.3222,3.3222,3.319,3.3121,3.3121,3.3092,3.3087,3.3079,0,3.3077,0,3.3058,3.3036,3.3036,0,0,0,3.3183,3.3198,3.3171,3.3222,3.319,3.3121,3.315,3.3089,3.3083,3.3072,3.3075,3.3072,3.3057,3.3036,3.3036,3.3024,3.3024,0,0,3.3187,3.3214,3.3175,3.3168,3.3183,3.3153,3.3148,3.3085,3.309,3.3075,3.307,3.3055,3.3036,3.3035,3.3023,3.3024,0,0,0,3.3203,3.3217,3.3191,3.3172,3.3159,3.3151,3.3146,3.3092,3.3082,3.3069,3.3054,3.3035,3.3034,3.3023,3.3023,3.3069,0,0,0,3.3205,3.3227,3.3193,3.3209,3.316,3.3125,3.3155,3.3086,3.3078,3.3055,3.3035,3.3034,3.3023,3.3023,3.3067,3.3085,0,0,0,3.3224,3.3229,3.3222,3.3211,3.3183,3.3126,3.3111,3.3084,3.307,3.3036,3.3034,3.3022,3.3023,3.3065,3.3082,3.3092,0,0,0,3.325,3.3261,3.3224,3.3229,3.3183,3.3155,3.3111,3.3088,3.3064,3.3035,3.3023,3.3023,3.3064,3.308,3.309,3.3106,3.3115,0,0,3.3279,3.3265,3.3267,3.3231,3.3218,3.3164,3.3155,3.3105,3.3074,3.3041,3.3041,3.3067,3.3082,3.3091,3.3154,3.3161,0,0,0,3.3285,3.3287,3.3277,3.3258,3.3223,3.3194,3.3143,3.3125,3.3096,3.3064,3.3072,3.3079,3.3084,3.309,3.3096,3.3098,3.3027,3.3027,3.3027,3.3365,3.3328,3.3328,3.3284,3.3265,3.3215,3.3196,3.3161,3.3127,3.3129,3.312,3.3163,3.3171,3.3176,3.3178,3.3124,3.3124,3.3124,3.3124,3.3404,3.3401,3.3358,3.3343,3.3303,3.3288,3.3239,3.3216,3.3195,3.3167,3.3168,3.3142,3.3185,3.3186,3.3127,3.3127,3.3127,3.3126,3.3126,3.3453,3.3446,3.3425,3.3395,3.3375,3.3328,3.3311,3.3274,3.3239,3.3241,3.3227,3.3226,3.3221,3.3237,3.3237,3.3237,3.3237,3.3237,3.3237,3.3513,3.3488,3.3481,3.3446,3.343,3.3403,3.3352,3.3334,3.3303,3.3278,3.3277,3.3243,3.3197,3.3186,3.3239,3.3239,3.3239,3.3239,3.3238,3.3568,3.355,3.3539,3.3523,3.3479,3.3462,3.3415,3.3382,3.336,3.3353,3.3319,3.329,3.3272,3.3267,3.3258,3.3327,3.3327,3.3327,3.3327,3.3611,3.3599,3.358,3.3557,3.353,3.3487,3.3473,3.3433,3.3388,3.3372,3.3357,3.3342,3.3338,3.3322,3.3316,3.3307,3.3386,3.3386,3.3386,3.3643,3.3628,3.3625,3.3584,3.3547,3.3515,3.3501,3.3474,3.3418,3.3388,3.336,3.3357,3.3332,3.3326,3.3296,3.3287,3.327,0,0]}]]